Skip Page Navigation
NASA JPL Caltech
NASA Logo - Jet Propulsion Laboratory + View the NASA Portal
+ Near-Earth Object (NEO) Program
Search JPL
JPL Home Earth Solar System Stars & Galaxies Technology
JPL Solar System Dynamics
BODIES ORBITS EPHEMERIDES TOOLS PHYSICAL DATA DISCOVERY FAQ SITE MAP
JPL Small-Body Database Browser
Search: [ help ]  
251346 (2007 SJ)
Classification: Apollo [NEO, PHA]          SPK-ID: 2251346
Ephemeris | Orbit Diagram | Orbital Elements | Physical Parameters | Discovery Circumstances | Close-Approach Data ]

[ hide orbit diagram ]
Orbit Diagram
Note: Make sure you have Java enabled on your browser to see the applet. This applet is provided as a 3D orbit visualization tool. The applet was implemented using 2-body methods, and hence should not be used for determining accurate long-term trajectories (over several years or decades) or planetary encounter circumstances. For accurate long-term ephemerides, please instead use our Horizons system.
Orbit Viewer

Additional Notes: the orbits shown in the applet are color coded. The planets are white lines, and the asteroid/comet is a blue line. The bright white line indicates the portion of the orbit that is above the ecliptic plane, and the darker portion is below the ecliptic plane. Likewise for the asteroid/comet orbit, the light blue indicates the portion above the ecliptic plane, and the dark blue the portion below the ecliptic plane.

Orbit Viewer applet originally written and kindly provided by Osamu Ajiki (AstroArts), and further modified by Ron Baalke (JPL).


Orbital Elements at Epoch 2456400.5 (2013-Apr-18.0) TDB
Reference: JPL 62 (heliocentric ecliptic J2000)
 Element Value Uncertainty (1-sigma)   Units 
e .5345050350544776 1.3365e-07  
a 2.014324596118194 5.5454e-08 AU
q .9376579572589425 2.6696e-07 AU
i 8.192196513494194 1.3896e-05 deg
node 306.8833329306288 0.00010817 deg
peri 174.9890103674778 0.00010964 deg
M 263.8725586984098 1.8523e-05 deg
tp 2456679.328711781786
(2014-Jan-21.82871178)
6.0253e-05 JED
period 1044.221451047635
2.86
4.3121e-05
1.181e-07
d
yr
n .3447544576285261 1.4237e-08 deg/d
Q 3.090991234977446 8.5095e-08 AU
  Orbit Determination Parameters
   # obs. used (total)      238  
   data-arc span      7916 days (21.67 yr)  
   first obs. used      1990-10-14  
   last obs. used      2012-06-16  
   planetary ephem.      DE405  
   SB-pert. ephem.      SB405-CPV-2  
   condition code      0  
   fit RMS      .60003  
   data source      ORB  
   producer      Otto Matic  
   solution date      2013-Apr-29 15:40:59  

Additional Information
 Earth MOID = .0443579 AU 
 T_jup = 3.624 
[ show covariance matrix ]

Ephemeris | Orbit Diagram | Orbital Elements | Physical Parameters | Discovery Circumstances | Close-Approach Data ]

Physical Parameter Table
Parameter Symbol Value Units Sigma Reference Notes
absolute magnitude H 16.664 mag .50253 62 autocmod 2.5c

251346 (2007 SJ)          Discovered 2007-Sep-17 by LINEAR at Socorro (704)
Reference: 20100923/Numbers.arcLast Updated: 2010-09-27

[ show close-approach data ]
Ephemeris | Orbit Diagram | Orbital Elements | Physical Parameters | Discovery Circumstances | Close-Approach Data ]
ABOUT SSD CREDITS/AWARDS PRIVACY/COPYRIGHT GLOSSARY LINKS
FirstGov 2013-May-18 06:32 UT
(server date/time)  
NASA Home Page
Site Manager:   Donald K. Yeomans
Webmaster  Alan B. Chamberlin